| time (UTC) | temp F | wind direction | speed knots | gust knots | rain 1hr in | rain 24hr in | rain mn in | humidity % | barometer mb |
| 20260505011408 | 53 | 227 | 0.9 | 5.2 | 0.00 | 0.00 | 0.00 | 76 | 1011.7 |
| 20260505010908 | 53 | 143 | 1.7 | 7.0 | 0.00 | 0.00 | 0.00 | 76 | 1011.7 |
| 20260505010408 | 53 | 219 | 1.7 | 7.0 | 0.00 | 0.00 | 0.00 | 75 | 1011.6 |
| 20260505004908 | 54 | 179 | 1.7 | 7.8 | 0.00 | 0.00 | 0.00 | 73 | 1011.4 |
| 20260505004408 | 54 | 169 | 0.9 | 7.0 | 0.00 | 0.00 | 0.00 | 73 | 1011.4 |
| 20260505003409 | 54 | 190 | 1.7 | 5.2 | 0.00 | 0.00 | 0.00 | 72 | 1011.2 |
| 20260505002908 | 55 | 181 | 0.0 | 5.2 | 0.00 | 0.00 | 0.00 | 71 | 1011.0 |
| 20260505002409 | 55 | 195 | 0.9 | 4.3 | 0.00 | 0.00 | 0.00 | 71 | 1011.0 |
| 20260505000908 | 56 | 224 | 0.0 | 4.3 | 0.00 | 0.00 | 0.00 | 70 | 1010.9 |
| 20260505000408 | 56 | 224 | 0.9 | 4.3 | 0.00 | 0.00 | 0.00 | 69 | 1010.8 |
| 20260504235909 | 56 | 200 | 0.0 | 0.0 | 0.00 | 0.00 | 0.00 | 68 | 1010.9 |
| 20260504235408 | 57 | 200 | 0.0 | 0.0 | 0.00 | 0.00 | 0.00 | 68 | 1010.8 |
| 20260504234908 | 57 | 200 | 0.0 | 0.0 | 0.00 | 0.00 | 0.00 | 67 | 1010.7 |
| 20260504234408 | 57 | 200 | 0.0 | 0.0 | 0.00 | 0.00 | 0.00 | 66 | 1010.6 |
| 20260504233908 | 58 | 200 | 0.0 | 0.0 | 0.00 | 0.00 | 0.00 | 66 | 1010.6 |
| 20260504233409 | 58 | 200 | 0.0 | 0.0 | 0.00 | 0.00 | 0.00 | 65 | 1010.5 |
| 20260504232909 | 58 | 200 | 0.0 | 0.0 | 0.00 | 0.00 | 0.00 | 64 | 1010.5 |
| 20260504231908 | 59 | 200 | 0.0 | 5.2 | 0.00 | 0.00 | 0.00 | 62 | 1010.2 |
| 20260504231408 | 59 | 270 | 0.9 | 2.6 | 0.00 | 0.00 | 0.00 | 61 | 1010.2 |
| 20260504230909 | 60 | 227 | 0.9 | 2.6 | 0.00 | 0.00 | 0.00 | 61 | 1010.2 |
| 20260504230409 | 60 | 157 | 0.0 | 0.0 | 0.00 | 0.00 | 0.00 | 60 | 1010.1 |
| 20260504225909 | 60 | 157 | 0.0 | 4.3 | 0.00 | 0.00 | 0.00 | 60 | 1010.1 |
| 20260504225409 | 61 | 157 | 0.0 | 4.3 | 0.00 | 0.00 | 0.00 | 60 | 1010.1 |
| 20260504224908 | 61 | 168 | 0.9 | 4.3 | 0.00 | 0.00 | 0.00 | 59 | 1009.9 |
| 20260504223908 | 62 | 277 | 0.0 | 6.1 | 0.00 | 0.00 | 0.00 | 58 | 1009.9 |
| 20260504223409 | 62 | 273 | 3.5 | 6.1 | 0.00 | 0.00 | 0.00 | 58 | 1009.9 |
| 20260504222908 | 62 | 236 | 0.9 | 6.1 | 0.00 | 0.00 | 0.00 | 58 | 1010.0 |
| 20260504222409 | 63 | 234 | 2.6 | 7.0 | 0.00 | 0.00 | 0.00 | 58 | 1009.9 |
| 20260504221910 | 63 | 250 | 4.3 | 7.0 | 0.00 | 0.00 | 0.00 | 58 | 1009.9 |
| 20260504221409 | 63 | 116 | 1.7 | 5.2 | 0.00 | 0.00 | 0.00 | 58 | 1009.9 |
| 20260504220909 | 63 | 229 | 0.9 | 6.1 | 0.00 | 0.00 | 0.00 | 58 | 1009.8 |
| 20260504220408 | 64 | 246 | 0.9 | 6.1 | 0.00 | 0.00 | 0.00 | 58 | 1009.9 |
| 20260504215909 | 64 | 224 | 0.0 | 4.3 | 0.00 | 0.00 | 0.00 | 58 | 1009.8 |
| 20260504215409 | 64 | 239 | 0.0 | 4.3 | 0.00 | 0.00 | 0.00 | 57 | 1009.8 |
| 20260504214909 | 64 | 224 | 0.9 | 5.2 | 0.00 | 0.00 | 0.00 | 56 | 1009.8 |
| 20260504214409 | 65 | 243 | 0.0 | 6.1 | 0.00 | 0.00 | 0.00 | 56 | 1009.8 |
| 20260504213908 | 65 | 189 | 0.0 | 7.0 | 0.00 | 0.00 | 0.00 | 56 | 1009.7 |
| 20260504213409 | 65 | 204 | 2.6 | 7.0 | 0.00 | 0.00 | 0.00 | 55 | 1009.7 |
| 20260504212909 | 65 | 232 | 0.9 | 6.1 | 0.00 | 0.00 | 0.00 | 57 | 1009.7 |
| 20260504212408 | 66 | 215 | 0.0 | 0.0 | 0.00 | 0.00 | 0.00 | 55 | 1009.6 |
| 20260504211908 | 66 | 215 | 0.0 | 0.0 | 0.00 | 0.00 | 0.00 | 55 | 1009.6 |
| 20260504211409 | 66 | 215 | 0.0 | 0.0 | 0.00 | 0.00 | 0.00 | 56 | 1009.6 |
| 20260504210908 | 65 | 215 | 0.0 | 0.0 | 0.00 | 0.00 | 0.00 | 54 | 1009.6 |
| 20260504210408 | 65 | 215 | 0.0 | 0.0 | 0.00 | 0.00 | 0.00 | 56 | 1009.7 |
| 20260504205409 | 66 | 215 | 0.0 | 5.2 | 0.00 | 0.00 | 0.00 | 55 | 1009.6 |
| 20260504204908 | 66 | 215 | 0.9 | 5.2 | 0.00 | 0.00 | 0.00 | 56 | 1009.6 |
| 20260504203908 | 65 | 202 | 1.7 | 6.1 | 0.00 | 0.00 | 0.00 | 56 | 1009.7 |
| 20260504203410 | 65 | 199 | 0.0 | 2.6 | 0.00 | 0.00 | 0.00 | 57 | 1009.8 |
| 20260504202908 | 64 | 188 | 0.9 | 2.6 | 0.00 | 0.00 | 0.00 | 58 | 1009.8 |
| 20260504202408 | 64 | 107 | 0.0 | 0.0 | 0.00 | 0.00 | 0.00 | 58 | 1009.9 |
| 20260504201909 | 64 | 107 | 0.0 | 0.0 | 0.00 | 0.00 | 0.00 | 58 | 1009.9 |
| 20260504201409 | 63 | 107 | 0.0 | 0.0 | 0.00 | 0.00 | 0.00 | 59 | 1010.1 |
| 20260504200908 | 63 | 107 | 0.0 | 1.7 | 0.00 | 0.00 | 0.00 | 59 | 1009.9 |
| 20260504195909 | 62 | 107 | 0.9 | 5.2 | 0.00 | 0.00 | 0.00 | 60 | 1009.9 |
| 20260504180407 | 59 | 125 | 0.9 | 5.2 | 0.00 | 0.00 | 0.00 | 61 | 1010.1 |
| 20260504175907 | 59 | 193 | 0.9 | 7.0 | 0.00 | 0.00 | 0.00 | 60 | 1010.1 |
| 20260504175407 | 59 | 179 | 0.9 | 7.0 | 0.00 | 0.00 | 0.00 | 59 | 1010.1 |
| 20260504174907 | 59 | 158 | 1.7 | 10.4 | 0.00 | 0.00 | 0.00 | 58 | 1010.1 |
| 20260504174407 | 60 | 185 | 5.2 | 10.4 | 0.00 | 0.00 | 0.00 | 56 | 1010.0 |
| 20260504173906 | 61 | 165 | 3.5 | 8.7 | 0.00 | 0.00 | 0.00 | 55 | 1010.0 |
| 20260504173406 | 63 | 201 | 4.3 | 8.7 | 0.00 | 0.00 | 0.00 | 53 | 1009.9 |
| 20260504172907 | 64 | 151 | 2.6 | 12.2 | 0.00 | 0.00 | 0.00 | 52 | 1009.8 |
| 20260504172406 | 64 | 206 | 3.5 | 12.2 | 0.00 | 0.00 | 0.00 | 51 | 1009.7 |
| 20260504171907 | 64 | 185 | 5.2 | 10.4 | 0.00 | 0.00 | 0.00 | 50 | 1009.7 |
| 20260504170907 | 65 | 143 | 3.5 | 11.3 | 0.00 | 0.00 | 0.00 | 50 | 1009.6 |
| 20260504170407 | 65 | 196 | 4.3 | 13.0 | 0.00 | 0.00 | 0.00 | 50 | 1009.7 |
| 20260504160407 | 62 | 188 | 0.9 | 8.7 | 0.00 | 0.00 | 0.00 | 56 | 1010.2 |
| 20260504150906 | 60 | 200 | 5.2 | 8.7 | 0.00 | 0.00 | 0.00 | 60 | 1011.1 |
| 20260504140906 | 54 | 129 | 2.6 | 7.0 | 0.00 | 0.00 | 0.00 | 68 | 1011.9 |
| 20260504140407 | 54 | 155 | 1.7 | 7.0 | 0.00 | 0.00 | 0.00 | 68 | 1011.9 |
| 20260504130406 | 51 | 47 | 1.7 | 8.7 | 0.00 | 0.00 | 0.00 | 72 | 1012.4 |
| 20260504035906 | 44 | 102 | 0.0 | 1.7 | 0.00 | 0.00 | 0.00 | 71 | 1012.1 |
| 20260504035406 | 44 | 102 | 0.0 | 1.7 | 0.00 | 0.00 | 0.00 | 71 | 1011.9 |
| 20260504034906 | 44 | 88 | 0.0 | 5.2 | 0.00 | 0.00 | 0.00 | 70 | 1011.9 |
| 20260504034407 | 44 | 88 | 0.9 | 5.2 | 0.00 | 0.00 | 0.00 | 70 | 1011.9 |
| 20260504033906 | 44 | 177 | 0.9 | 7.8 | 0.00 | 0.00 | 0.00 | 70 | 1011.9 |
| 20260504033407 | 44 | 1 | 0.0 | 7.8 | 0.00 | 0.00 | 0.00 | 69 | 1011.9 |